Regional Weather Roundup
Issued by NWS

Home | Current Version | Previous Version | Text Only | Print | Product List | Glossary Off
Versions: 1 2 3 4 5 6 7 8 9 10 11 12 13 14 15 16 17 18 19 20 21 22 23 24 25 26 27 28 29 30 31 32 33 34 35 36 37 38 39 40 41 42 43 44 45 46 47 48 49 50

000
ASUS43 KBIS 232110
RWRND

NORTH DAKOTA REGIONAL WEATHER ROUNDUP
NATIONAL WEATHER SERVICE BISMARCK ND
400 PM CDT WED JUL 23 2014

NOTE: "FAIR" INDICATES FEW OR NO CLOUDS BELOW 12,000 FEET WITH NO
SIGNIFICANT WEATHER AND/OR OBSTRUCTIONS TO VISIBILITY.


NDZ001>003-009>011-017-232200-
NORTHWEST NORTH DAKOTA

CITY           SKY/WX    TMP DP  RH WIND       PRES   REMARKS
WILLISTON      PTSUNNY   87  60  40 E16G30    30.10F
MINOT          MOSUNNY   76  66  71 E15       30.20F
MINOT AFB      PTSUNNY   75  67  76 E16G23    30.20F
$$

NDZ018>021-031>035-040>046-232200-
SOUTHWEST NORTH DAKOTA

CITY           SKY/WX    TMP DP  RH WIND       PRES   REMARKS
BISMARCK       MOSUNNY   83  61  47 SE14G28   30.20F
DICKINSON      SUNNY     83  63  50 SE18G28   30.13F
GARRISON         N/A     79  66  64 SE12G21   30.19F
HETTINGER ARPT PTSUNNY   81  61  50 SE18      30.16F
$$

NDZ004>008-012>016-024-026-027-054-232200-
NORTHEAST NORTH DAKOTA

CITY           SKY/WX    TMP DP  RH WIND       PRES   REMARKS
GRAND FORKS    MOSUNNY   74  56  53 NW3       30.26F
GRND FRKS AFB  SUNNY     74  58  58 VRB6      30.27F
DEVILS LAKE    PTSUNNY   72  55  56 SE7       30.26F
$$

NDZ022-023-025-028>030-036>039-047>053-232200-
SOUTHEAST NORTH DAKOTA

CITY           SKY/WX    TMP DP  RH WIND       PRES   REMARKS
FARGO          PTSUNNY   78  58  49 N5        30.25F
JAMESTOWN      MOSUNNY   79  57  46 SE8       30.24F
$$




USA.gov is the U.S. government's official web portal to all federal, state and local government web resources and services.